Location: Recife
(8.0585°S, 34.8848°W)
Time: 10:12:04
(UTC-03:00)

Transit 2A Rocket - Pass Details

Date: 18 April 2026
Orbit: 587 x 895 km, 66.7° (Epoch: 14 May)

Event Time Altitude Azimuth Distance (km) Brightness Sun altitude
Rises 22:45:45 0° 199° (SSW) 3,430 - -81.3°
Reaches altitude 10° 22:48:12 10° 198° (SSW) 2,519 - -81.9°
Maximum altitude 22:54:06 82° 111° (ESE) 903 - -83.2°
Drops below altitude 10° 23:00:06 10° 23° (NNE) 2,550 - -84.5°
Sets 23:02:35 0° 22° (NNE) 3,475 - -85.0°
